Weather History for KBIJ - December, 2012

Change the Weather History Date:

Wednesday, December 12, 2012

  Actual Average (KDHN) Record (KDHN)
Temperature  
Mean Temperature 46 °F 52 °F  
Max Temperature 50 °F 63 °F 81 °F (1946)
Min Temperature 42 °F 41 °F 11 °F (1962)
Degree Days  
Heating Degree Days 19 14  
Month to date heating degree days 148  
Since 1 July heating degree days 425  
Moisture  
Dew Point 45 °F    
Average Humidity 96    
Maximum Humidity 100    
Minimum Humidity 82    
Precipitation  
Precipitation 0.00 in 0.15 in 1.89 in (1961)
Month to date precipitation 2.13  
Year to date precipitation 51.71  
Sea Level Pressure  
Sea Level Pressure 30.16 in    
Wind  
Wind Speed 2 mph (NNE)    
Max Wind Speed 10 mph    
Max Gust Speed -    
Visibility 6 miles    
Events Rain , Thunderstorm    
T = Trace of Precipitation, MM = Missing Value Source: NWS Daily Summary

Daily Weather History Graph

Daily Weather History Graph

Search for Another Location

Airport or City:

Trip Planner

Search our weather history database for the weather conditions in past years. The results will help you decide how hot, cold, wet, or windy it might be!

Date:

Astronomy

Dec. 12, 2012 Rise Set
Actual Time 7:29 AM EST 5:37 PM EST
Civil Twilight 7:02 AM EST 6:04 PM EST
Nautical Twilight 6:32 AM EST 6:34 PM EST
Astronomical Twilight 6:02 AM EST 7:04 PM EST
Moon 6:34 AM EST (12/12) 5:12 PM EST (12/12)
Length of Visible Light 11h 01m
Length of Day
10h 08m
Waning Crescent, 1% of the Moon is Illuminated
Dec 12
Waning Crescent
Dec 13
New
Dec 20
First Quarter
Dec 28
Full
Jan 4
Last Quarter

Hourly Weather History & Observations

Time (EST) Temp. Windchill Dew Point Humidity Pressure Visibility Wind Dir Wind Speed Gust Speed Precip Events Conditions
12:15 AM 48.2 °F - 42.8 °F 82% 30.15 in 10.0 mi Calm Calm - N/A   Overcast
12:35 AM 48.2 °F - 42.8 °F 82% 30.16 in 10.0 mi North 3.5 mph - N/A Rain Light Rain
12:55 AM 46.4 °F - 42.8 °F 87% 30.15 in 10.0 mi Calm Calm - N/A Rain Light Rain
1:15 AM 46.4 °F - 44.6 °F 93% 30.15 in 7.0 mi Calm Calm - N/A Rain Light Rain
1:35 AM 44.6 °F - 44.6 °F 100% 30.13 in 10.0 mi Calm Calm - N/A Rain Light Rain
1:55 AM 44.6 °F - 44.6 °F 100% 30.13 in 10.0 mi Calm Calm - N/A Rain Rain
2:15 AM 44.6 °F - 44.6 °F 100% 30.14 in 7.0 mi Calm Calm - N/A Rain Light Rain
2:35 AM 44.6 °F - 44.6 °F 100% 30.12 in 7.0 mi Calm Calm - N/A Rain Light Rain
2:55 AM 44.6 °F 43.1 °F 44.6 °F 100% 30.12 in 7.0 mi North 3.5 mph - N/A Rain Light Rain
3:15 AM 44.6 °F 41.4 °F 42.8 °F 93% 30.13 in 7.0 mi North 5.8 mph - N/A Rain Light Rain
3:35 AM 44.6 °F 43.1 °F 42.8 °F 93% 30.12 in 7.0 mi North 3.5 mph - N/A   Light Drizzle
3:55 AM 44.6 °F 42.2 °F 42.8 °F 93% 30.11 in 7.0 mi North 4.6 mph - N/A Rain Rain
4:15 AM 44.6 °F 41.4 °F 42.8 °F 93% 30.10 in 7.0 mi NE 5.8 mph - N/A   Light Drizzle
4:35 AM 42.8 °F 41.1 °F 42.8 °F 100% 30.10 in 7.0 mi NNE 3.5 mph - N/A   Overcast
4:55 AM 44.6 °F 41.4 °F 42.8 °F 93% 30.09 in 7.0 mi NNE 5.8 mph - N/A   Light Drizzle
5:15 AM 44.6 °F 43.1 °F 42.8 °F 93% 30.10 in 7.0 mi NNE 3.5 mph - N/A Rain Light Rain
5:35 AM 44.6 °F - 42.8 °F 93% 30.11 in 7.0 mi Calm Calm - N/A Rain Rain
5:55 AM 44.6 °F - 42.8 °F 93% 30.11 in 7.0 mi Calm Calm - N/A   Overcast
6:15 AM 44.6 °F - 42.8 °F 93% 30.13 in 7.0 mi Calm Calm - N/A   Mostly Cloudy
6:35 AM 44.6 °F - 42.8 °F 93% 30.14 in 7.0 mi Calm Calm - N/A   Scattered Clouds
6:55 AM 44.6 °F - 42.8 °F 93% 30.14 in 7.0 mi Calm Calm - N/A   Scattered Clouds
7:15 AM 44.6 °F 43.1 °F 42.8 °F 93% 30.14 in 7.0 mi North 3.5 mph - N/A   Mostly Cloudy
7:35 AM 44.6 °F - 42.8 °F 93% 30.15 in 7.0 mi Calm Calm - N/A Rain Rain
8:15 AM 44.6 °F - 44.6 °F 100% 30.17 in 4.0 mi Calm Calm - N/A Rain Light Rain
8:35 AM 44.6 °F - 44.6 °F 100% 30.18 in 4.0 mi Calm Calm - N/A Rain Rain
8:55 AM 44.6 °F - 44.6 °F 100% 30.18 in 4.0 mi Calm Calm - N/A   Drizzle
9:15 AM 44.6 °F - 44.6 °F 100% 30.19 in 4.0 mi Calm Calm - N/A   Overcast
9:35 AM 44.6 °F - 44.6 °F 100% 30.20 in 4.0 mi Calm Calm - N/A Rain Light Rain
9:55 AM 44.6 °F 43.1 °F 44.6 °F 100% 30.20 in 4.0 mi North 3.5 mph - N/A Rain Light Rain
10:15 AM 44.6 °F 42.2 °F 44.6 °F 100% 30.18 in 3.0 mi ENE 4.6 mph - N/A Rain Rain
10:35 AM 44.6 °F 42.2 °F 44.6 °F 100% 30.18 in 4.0 mi NE 4.6 mph - N/A   Overcast
10:55 AM 46.4 °F 42.9 °F 44.6 °F 93% 30.17 in 5.0 mi East 6.9 mph - N/A   Overcast
11:15 AM 46.4 °F 44.3 °F 44.6 °F 93% 30.17 in 5.0 mi ENE 4.6 mph - N/A   Mostly Cloudy
11:35 AM 46.4 °F 45.2 °F 44.6 °F 93% 30.20 in 5.0 mi North 3.5 mph - N/A   Overcast
12:15 PM 46.4 °F 45.2 °F 46.4 °F 100% 30.16 in 5.0 mi NE 3.5 mph - N/A   Overcast
12:35 PM 46.4 °F 44.3 °F 46.4 °F 100% 30.12 in 5.0 mi NE 4.6 mph - N/A   Unknown
12:55 PM 46.4 °F - 46.4 °F 100% 30.15 in 5.0 mi Calm Calm - N/A   Overcast
1:15 PM 46.4 °F 45.2 °F 46.4 °F 100% 30.13 in 5.0 mi ENE 3.5 mph - N/A   Overcast
1:35 PM 46.4 °F - 46.4 °F 100% 30.14 in 5.0 mi Calm Calm - N/A   Overcast
1:55 PM 46.4 °F - 46.4 °F 100% 30.13 in 3.0 mi Calm Calm - N/A   Drizzle
2:15 PM 46.4 °F 44.3 °F 46.4 °F 100% 30.13 in 1.8 mi ENE 4.6 mph - N/A   Heavy Drizzle
2:35 PM 46.4 °F 45.2 °F 46.4 °F 100% 30.11 in 3.0 mi ENE 3.5 mph - N/A   Light Drizzle
2:55 PM 46.4 °F 44.3 °F 46.4 °F 100% 30.13 in 3.0 mi North 4.6 mph - N/A   Light Drizzle
3:15 PM 48.2 °F - 46.4 °F 93% 30.14 in 4.0 mi NW 3.5 mph - N/A Rain Rain
3:35 PM 46.4 °F - 46.4 °F 100% 30.14 in 3.0 mi Calm Calm - N/A Rain Light Rain
3:55 PM 46.4 °F - 46.4 °F 100% 30.16 in 2.5 mi Calm Calm - N/A   Drizzle
4:15 PM 48.2 °F - 48.2 °F 100% 30.15 in 3.0 mi NNW 3.5 mph - N/A   Drizzle
4:35 PM 48.2 °F - 48.2 °F 100% 30.13 in 3.0 mi Calm Calm - N/A Rain Light Rain
4:55 PM 46.4 °F - 46.4 °F 100% 30.12 in 4.0 mi Calm Calm - N/A   Drizzle
5:15 PM 46.4 °F 44.3 °F 46.4 °F 100% 30.14 in 3.0 mi North 4.6 mph - N/A Rain Rain
5:35 PM 46.4 °F - 46.4 °F 100% 30.16 in 5.0 mi Calm Calm - N/A   Light Drizzle
5:55 PM 46.4 °F 45.2 °F 46.4 °F 100% 30.17 in 4.0 mi NNW 3.5 mph - N/A Rain Light Rain
6:15 PM 48.2 °F - 46.4 °F 93% 30.17 in 7.0 mi NNW 3.5 mph - N/A   Overcast
6:35 PM 48.2 °F - 46.4 °F 93% 30.18 in 7.0 mi Calm Calm - N/A   Overcast
6:55 PM 48.2 °F - 46.4 °F 93% 30.18 in 10.0 mi North 4.6 mph - N/A   Overcast
7:15 PM 48.2 °F - 46.4 °F 93% 30.18 in 10.0 mi North 4.6 mph - N/A Rain Light Rain
7:35 PM 48.2 °F - 46.4 °F 93% 30.19 in 10.0 mi NNW 8.1 mph - N/A   Overcast
7:55 PM 48.2 °F - 46.4 °F 93% 30.20 in 10.0 mi North 4.6 mph - N/A   Overcast
8:15 PM 48.2 °F - 46.4 °F 93% 30.20 in 10.0 mi North 4.6 mph - N/A Thunderstorm Overcast
8:35 PM 48.2 °F - 46.4 °F 93% 30.21 in 7.0 mi NNE 5.8 mph - N/A   Overcast
8:55 PM 48.2 °F - 46.4 °F 93% 30.21 in 7.0 mi NNE 4.6 mph - N/A   Overcast
9:15 PM 48.2 °F - 46.4 °F 93% 30.21 in 10.0 mi NE 3.5 mph - N/A   Overcast
9:35 PM 50.0 °F - 46.4 °F 87% 30.21 in 10.0 mi Calm Calm - N/A   Overcast
9:55 PM 50.0 °F - 46.4 °F 87% 30.21 in 10.0 mi NE 3.5 mph - N/A   Overcast
10:35 PM 46.4 °F 45.2 °F 46.4 °F 100% 30.20 in 7.0 mi ENE 3.5 mph - N/A   Mostly Cloudy
10:55 PM 46.4 °F 45.2 °F 46.4 °F 100% 30.21 in 7.0 mi ENE 3.5 mph - N/A   Scattered Clouds
11:15 PM 46.4 °F 45.2 °F 46.4 °F 100% 30.21 in 7.0 mi East 3.5 mph - N/A   Scattered Clouds
11:35 PM 46.4 °F 43.5 °F 46.4 °F 100% 30.20 in 7.0 mi East 5.8 mph - N/A   Mostly Cloudy
11:55 PM 48.2 °F - 46.4 °F 93% 30.20 in 10.0 mi East 10.4 mph - N/A   Overcast